SR6NWB-11 Weather Reports


Display with metric or nautical units.
time (UTC)temp
F
wind
direction
speed
MPH
gust
MPH
rain 1hr
in
rain 24hr
in
rain mn
in
humidity
%
barometer
mb
20260506145712 71 0 0.0 0.0 0.00 0.00 0.00 41 1011.2
20260506144847 71 0 0.0 0.0 0.00 0.00 0.00 43 1011.2
20260506143922 70 0 0.0 0.0 0.00 0.00 0.00 44 1011.3
20260506142942 69 0 0.0 0.0 0.00 0.00 0.00 44 1011.3
20260506142132 69 0 0.0 0.0 0.00 0.00 0.00 46 1011.3
20260506141319 69 0 0.0 0.0 0.00 0.00 0.00 45 1011.2
20260506140402 69 0 0.0 0.0 0.00 0.00 0.00 48 1011.2
20260506135439 68 0 0.0 0.0 0.00 0.00 0.00 49 1011.5
20260506134617 68 0 0.0 0.0 0.00 0.00 0.00 50 1011.6
20260506133639 67 0 0.0 0.0 0.00 0.00 0.00 51 1011.5
20260506132719 66 0 0.0 0.0 0.00 0.00 0.00 54 1011.5
20260506131902 65 0 0.0 0.0 0.00 0.00 0.00 54 1011.5
20260506131022 65 0 0.0 0.0 0.00 0.00 0.00 54 1011.7
20260506130157 64 0 0.0 0.0 0.00 0.00 0.00 56 1011.5
20260506125319 64 0 0.0 0.0 0.00 0.00 0.00 57 1011.8
20260506124432 64 0 0.0 0.0 0.00 0.00 0.00 57 1011.6
20260506123522 64 0 0.0 0.0 0.00 0.00 0.00 59 1011.6
20260506122557 64 0 0.0 0.0 0.00 0.00 0.00 61 1011.6
20260506121602 62 0 0.0 0.0 0.00 0.00 0.00 65 1011.7
20260506120732 62 0 0.0 0.0 0.00 0.00 0.00 66 1011.7
20260506115917 61 0 0.0 0.0 0.00 0.00 0.00 67 1011.9
20260506114917 61 0 0.0 0.0 0.00 0.00 0.00 68 1011.8
20260506113927 61 0 0.0 0.0 0.00 0.00 0.00 68 1011.7
20260506113032 60 0 0.0 0.0 0.00 0.00 0.00 70 1011.7
20260506112229 60 0 0.0 0.0 0.00 0.00 0.00 74 1011.7
20260506111352 59 0 0.0 0.0 0.00 0.00 0.00 74 1011.7
20260506110547 58 0 0.0 0.0 0.00 0.00 0.00 76 1011.6
20260506105707 58 0 0.0 0.0 0.00 0.00 0.00 75 1011.5
20260506104707 58 0 0.0 0.0 0.00 0.00 0.00 77 1011.7
20260506103707 58 0 0.0 0.0 0.00 0.00 0.00 79 1011.6
20260506102707 57 0 0.0 0.0 0.00 0.00 0.00 79 1011.6
20260506101839 57 0 0.0 0.0 0.00 0.00 0.00 79 1011.5
20260506100904 57 0 0.0 0.0 0.00 0.00 0.00 81 1011.6
20260506095959 57 0 0.0 0.0 0.00 0.00 0.00 81 1011.4
20260506095152 57 0 0.0 0.0 0.00 0.00 0.00 82 1011.5
20260506094326 56 0 0.0 0.0 0.00 0.00 0.00 83 1011.5
20260506093332 56 0 0.0 0.0 0.00 0.00 0.00 84 1011.5
20260506092332 56 0 0.0 0.0 0.00 0.00 0.00 84 1011.4
20260506091532 55 0 0.0 0.0 0.00 0.00 0.00 85 1011.4
20260506090559 55 0 0.0 0.0 0.00 0.00 0.00 86 1011.2
20260506085727 55 0 0.0 0.0 0.00 0.00 0.00 86 1011.4
20260506084832 55 0 0.0 0.0 0.00 0.00 0.00 85 1011.1
20260506083902 55 0 0.0 0.0 0.00 0.00 0.00 86 1011.1
20260506082947 56 0 0.0 0.0 0.00 0.00 0.00 86 1011.0
20260506082137 56 0 0.0 0.0 0.00 0.00 0.00 86 1011.0
20260506081259 56 0 0.0 0.0 0.00 0.00 0.00 88 1010.9
20260506080332 55 0 0.0 0.0 0.00 0.00 0.00 88 1010.8
20260506072737 54 0 0.0 0.0 0.00 0.00 0.00 92 1010.7
20260506071837 53 0 0.0 0.0 0.00 0.00 0.00 92 1010.6
20260506070837 53 0 0.0 0.0 0.00 0.00 0.00 93 1010.3
20260506061602 54 0 0.0 0.0 0.00 0.00 0.00 93 1010.2
20260506060757 54 0 0.0 0.0 0.00 0.00 0.00 93 1010.1
20260506050442 53 0 0.0 0.0 0.00 0.00 0.00 96 1009.6
20260506044642 53 0 0.0 0.0 0.00 0.00 0.00 97 1009.7
20260506043737 53 0 0.0 0.0 0.00 0.00 0.00 97 1009.5
20260506042829 52 0 0.0 0.0 0.00 0.00 0.00 97 1009.6
20260506041852 52 0 0.0 0.0 0.00 0.00 0.00 96 1009.5
20260506040947 52 0 0.0 0.0 0.00 0.00 0.00 95 1009.6
20260506035232 53 0 0.0 0.0 0.00 0.00 0.00 92 1009.4
20260506034427 53 0 0.0 0.0 0.00 0.00 0.00 90 1009.3
20260506033447 53 0 0.0 0.0 0.00 0.00 0.00 88 1009.4
20260506032647 53 0 0.0 0.0 0.00 0.00 0.00 88 1009.4
20260506031702 53 0 0.0 0.0 0.00 0.00 0.00 89 1009.4
20260506030727 53 0 0.0 0.0 0.00 0.00 0.00 89 1009.4
20260506025730 53 0 0.0 0.0 0.00 0.00 0.00 89 1009.5
20260506024919 53 0 0.0 0.0 0.00 0.00 0.00 90 1009.5
20260506024032 53 0 0.0 0.0 0.00 0.00 0.00 91 1009.5
20260506023032 53 0 0.0 0.0 0.00 0.00 0.00 91 1009.6
20260506022152 53 0 0.0 0.0 0.00 0.00 0.00 92 1009.5
20260506021152 53 0 0.0 0.0 0.00 0.00 0.00 93 1009.6
20260506020242 53 0 0.0 0.0 0.00 0.00 0.00 93 1009.8
20260506015422 53 0 0.0 0.0 0.00 0.00 0.00 93 1010.1
20260506014457 53 0 0.0 0.0 0.00 0.00 0.00 92 1010.3
20260506013527 53 0 0.0 0.0 0.00 0.00 0.00 91 1010.1
20260506012537 53 0 0.0 0.0 0.00 0.00 0.00 89 1010.2
20260506011657 53 0 0.0 0.0 0.00 0.00 0.00 88 1010.2
20260506005859 53 0 0.0 0.0 0.00 0.00 0.00 89 1010.2
20260506005032 54 0 0.0 0.0 0.00 0.00 0.00 91 1010.3
20260506004227 54 0 0.0 0.0 0.00 0.00 0.00 92 1010.2
20260506003307 54 0 0.0 0.0 0.00 0.00 0.00 93 1010.1
20260506002307 54 0 0.0 0.0 0.00 0.00 0.00 93 1010.0
20260506001417 54 0 0.0 0.0 0.00 0.00 0.00 94 1010.1
20260506000607 53 0 0.0 0.0 0.00 0.00 0.00 95 1010.1
20260505235702 53 0 0.0 0.0 0.00 0.00 0.00 95 1010.3
20260505234817 53 0 0.0 0.0 0.00 0.00 0.00 94 1010.5
20260505234012 54 0 0.0 0.0 0.00 0.00 0.00 93 1010.7
20260505233107 54 0 0.0 0.0 0.00 0.00 0.00 93 1010.7
20260505232147 55 0 0.0 0.0 0.00 0.00 0.00 93 1010.6
20260505231232 55 0 0.0 0.0 0.00 0.00 0.00 93 1010.5
20260505230347 54 0 0.0 0.0 0.00 0.00 0.00 94 1010.4
20260505225357 54 0 0.0 0.0 0.00 0.00 0.00 95 1010.6
20260505224542 53 0 0.0 0.0 0.00 0.00 0.00 96 1010.5
20260505223612 53 0 0.0 0.0 0.00 0.00 0.00 96 1010.6
20260505222747 53 0 0.0 0.0 0.00 0.00 0.00 97 1010.7
20260505221912 53 0 0.0 0.0 0.00 0.00 0.00 97 1010.8
20260505220922 53 0 0.0 0.0 0.00 0.00 0.00 97 1010.9
20260505220022 53 0 0.0 0.0 0.00 0.00 0.00 97 1011.1
20260505215102 53 0 0.0 0.0 0.00 0.00 0.00 97 1011.2
20260505214152 53 0 0.0 0.0 0.00 0.00 0.00 97 1011.2
20260505213222 54 0 0.0 0.0 0.00 0.00 0.00 95 1011.3
20260505212412 54 0 0.0 0.0 0.00 0.00 0.00 94 1011.4
20260505211557 54 0 0.0 0.0 0.00 0.00 0.00 92 1011.4
20260505210732 55 0 0.0 0.0 0.00 0.00 0.00 91 1011.4
20260505205732 55 0 0.0 0.0 0.00 0.00 0.00 90 1011.5
20260505204737 55 0 0.0 0.0 0.00 0.00 0.00 90 1011.7
20260505203807 55 0 0.0 0.0 0.00 0.00 0.00 90 1011.7
20260505202947 55 0 0.0 0.0 0.00 0.00 0.00 89 1011.7
20260505202007 56 0 0.0 0.0 0.00 0.00 0.00 89 1011.7
20260505201207 56 0 0.0 0.0 0.00 0.00 0.00 89 1011.7
20260505200352 56 0 0.0 0.0 0.00 0.00 0.00 89 1011.6
20260505195513 56 0 0.0 0.0 0.00 0.00 0.00 89 1011.6
20260505194517 56 0 0.0 0.0 0.00 0.00 0.00 87 1011.6
20260505193612 56 0 0.0 0.0 0.00 0.00 0.00 86 1011.6
20260505192747 57 0 0.0 0.0 0.00 0.00 0.00 85 1011.5
20260505191840 57 0 0.0 0.0 0.00 0.00 0.00 84 1011.7
20260505190847 57 0 0.0 0.0 0.00 0.00 0.00 83 1011.7
20260505185952 58 0 0.0 0.0 0.00 0.00 0.00 82 1011.7
20260505185037 58 0 0.0 0.0 0.00 0.00 0.00 81 1011.7
20260505184102 58 0 0.0 0.0 0.00 0.00 0.00 79 1011.6
20260505183137 59 0 0.0 0.0 0.00 0.00 0.00 78 1011.7
20260505182322 59 0 0.0 0.0 0.00 0.00 0.00 76 1011.8
20260505181347 59 0 0.0 0.0 0.00 0.00 0.00 75 1011.8
20260505180447 60 0 0.0 0.0 0.00 0.00 0.00 74 1011.8
20260505175527 60 0 0.0 0.0 0.00 0.00 0.00 71 1012.0
20260505174552 61 0 0.0 0.0 0.00 0.00 0.00 69 1012.0
20260505173707 62 0 0.0 0.0 0.00 0.00 0.00 68 1011.9
20260505172707 62 0 0.0 0.0 0.00 0.00 0.00 65 1012.0
20260505171847 62 0 0.0 0.0 0.00 0.00 0.00 62 1011.9
20260505170927 64 0 0.0 0.0 0.00 0.00 0.00 55 1011.8
20260505170107 65 0 0.0 0.0 0.00 0.00 0.00 49 1012.1
20260505165212 66 0 0.0 0.0 0.00 0.00 0.00 44 1011.8
20260505164322 67 0 0.0 0.0 0.00 0.00 0.00 38 1011.8
20260505163407 68 0 0.0 0.0 0.00 0.00 0.00 37 1011.8
20260505162452 69 0 0.0 0.0 0.00 0.00 0.00 37 1011.8
20260505161652 69 0 0.0 0.0 0.00 0.00 0.00 36 1011.9
20260505160812 70 0 0.0 0.0 0.00 0.00 0.00 35 1011.9
20260505152907 73 0 0.0 0.0 0.00 0.00 0.00 32 1012.0
20260505152032 73 0 0.0 0.0 0.00 0.00 0.00 33 1012.0
20260505151152 72 0 0.0 0.0 0.00 0.00 0.00 33 1012.0
20260505150317 72 0 0.0 0.0 0.00 0.00 0.00 33 1012.2